GW7270 Weather Reports


Display with metric or nautical units.
time (UTC)temp
F
wind
direction
speed
MPH
gust
MPH
rain 1hr
in
rain 24hr
in
rain mn
in
humidity
%
barometer
mb
20260510154624 42 311 10.0 21.0 0.00 0.00 0.00 73 1018.9
20260510154124 42 302 12.0 21.0 0.00 0.00 0.00 72 1018.8
20260510153109 42 299 11.0 19.0 0.00 0.00 0.00 72 1018.5
20260510152609 42 314 12.0 19.0 0.00 0.00 0.00 74 1018.7
20260510151553 42 308 10.0 19.0 0.00 0.00 0.00 76 1018.7
20260510151053 41 305 11.0 21.0 0.00 0.00 0.00 77 1018.5
20260510150552 41 318 12.0 21.0 0.00 0.00 0.00 77 1018.3
20260510150051 41 323 10.0 20.0 0.00 0.00 0.00 79 1017.8
20260510145551 41 303 11.0 20.0 0.00 0.00 0.00 78 1017.5
20260510145051 41 308 12.0 20.0 0.00 0.00 0.00 77 1017.6
20260510144551 42 306 10.0 17.0 0.00 0.00 0.00 76 1017.5
20260510144051 42 315 8.0 16.0 0.00 0.00 0.00 77 1018.1
20260510143551 42 312 8.0 22.0 0.00 0.00 0.00 78 1017.3
20260510143050 41 335 10.0 22.0 0.00 0.00 0.00 78 1017.4
20260510141518 41 316 10.0 20.0 0.00 0.00 0.00 78 1017.0
20260510140502 42 326 9.0 20.0 0.00 0.00 0.00 77 1017.2
20260510140001 41 327 10.0 20.0 0.00 0.00 0.00 80 1017.2
20260510135501 41 318 13.0 20.0 0.00 0.00 0.00 79 1016.2
20260510135000 42 312 5.0 16.0 0.00 0.00 0.00 79 1016.9
20260510133945 41 319 11.0 19.0 0.00 0.00 0.00 79 1016.7
20260510133444 41 316 9.0 19.0 0.00 0.00 0.00 79 1016.8
20260510132428 41 307 9.0 17.0 0.00 0.00 0.00 79 1016.5
20260510131928 41 313 10.0 16.0 0.00 0.00 0.00 78 1016.5
20260510130913 41 320 10.0 17.0 0.00 0.00 0.00 78 1016.4
20260510130412 42 318 6.0 16.0 0.00 0.00 0.00 77 1016.2
20260510125356 41 305 8.0 16.0 0.00 0.00 0.00 79 1015.7
20260510124856 41 321 10.0 17.0 0.00 0.00 0.00 78 1015.8
20260510124356 41 302 9.0 17.0 0.00 0.00 0.00 77 1015.8
20260510123856 41 335 7.0 17.0 0.00 0.00 0.00 78 1015.7
20260510123356 41 313 8.0 15.0 0.00 0.00 0.00 78 1015.8
20260510122855 40 313 9.0 16.0 0.00 0.00 0.00 80 1015.8
20260510122355 40 312 7.0 16.0 0.00 0.00 0.00 80 1015.7
20260510121855 41 326 6.0 13.0 0.00 0.00 0.00 80 1014.6
20260510121355 40 321 8.0 15.0 0.00 0.00 0.00 80 1015.3
20260510120855 40 311 8.0 17.0 0.00 0.00 0.00 80 1014.9
20260510120354 40 318 10.0 17.0 0.00 0.00 0.00 80 1014.6
20260510115854 40 312 8.0 16.0 0.00 0.00 0.00 80 1014.5
20260510115354 40 324 7.0 16.0 0.00 0.00 0.00 81 1014.4
20260510114854 40 306 8.0 16.0 0.00 0.00 0.00 80 1014.4
20260510114354 39 315 8.0 16.0 0.00 0.00 0.00 81 1014.3
20260510113854 39 314 7.0 16.0 0.00 0.00 0.00 82 1014.5
20260510112839 38 312 6.0 14.0 0.00 0.00 0.00 84 1014.0
20260510112339 38 313 5.0 13.0 0.00 0.00 0.00 85 1014.1
20260510111839 38 316 6.0 12.0 0.00 0.00 0.00 85 1013.8
20260510111338 38 302 5.0 12.0 0.00 0.00 0.00 85 1013.8
20260510110839 38 307 6.0 12.0 0.00 0.00 0.00 86 1013.4
20260510110338 37 314 5.0 12.0 0.00 0.00 0.00 86 1013.6
20260510105838 37 333 3.0 14.0 0.00 0.00 0.00 87 1013.4
20260510104821 37 330 5.0 14.0 0.00 0.00 0.00 87 1013.1
20260510103805 37 338 3.0 14.0 0.00 0.00 0.00 87 1012.2
20260510102750 37 326 6.0 14.0 0.00 0.00 0.00 87 1011.8
20260510102249 37 329 8.0 14.0 0.00 0.00 0.00 87 1011.8
20260510101748 37 324 5.0 12.0 0.00 0.00 0.00 87 1011.9
20260510100731 37 331 6.0 12.0 0.00 0.00 0.00 88 1011.7
20260510100231 36 321 4.0 12.0 0.00 0.00 0.00 88 1011.5
20260510095731 36 336 5.0 12.0 0.00 0.00 0.00 88 1011.2
20260510095230 37 312 3.0 12.0 0.00 0.00 0.00 87 1011.2
20260510094729 37 322 4.0 12.0 0.00 0.00 0.00 87 1011.2
20260510094228 37 325 5.0 12.0 0.00 0.00 0.00 87 1011.2
20260510093727 37 327 5.0 12.0 0.00 0.00 0.00 87 1011.4
20260510093227 37 320 6.0 12.0 0.00 0.00 0.00 87 1010.8
20260510092210 37 306 4.0 12.0 0.00 0.00 0.00 87 1010.9
20260510091710 37 301 6.0 12.0 0.00 0.00 0.00 87 1010.6
20260510091209 37 312 4.0 12.0 0.00 0.00 0.00 87 1010.5
20260510090709 37 311 7.0 12.0 0.00 0.00 0.00 87 1010.5
20260510090208 37 308 4.0 12.0 0.00 0.00 0.00 87 1010.3
20260510085152 37 308 5.0 12.0 0.00 0.00 0.00 87 1010.4
20260510084652 37 330 5.0 12.0 0.00 0.00 0.00 87 1010.0
20260510084151 37 323 4.0 12.0 0.00 0.00 0.00 87 1010.2
20260510083134 37 329 6.0 12.0 0.00 0.00 0.00 87 1010.0
20260510082634 37 337 5.0 12.0 0.00 0.00 0.00 88 1010.1
20260510082134 37 328 4.0 12.0 0.00 0.00 0.00 88 1009.5
20260510081633 37 326 4.0 12.0 0.00 0.00 0.00 88 1009.1
20260510081133 37 329 4.0 12.0 0.00 0.00 0.00 88 1009.1
20260510080633 37 328 5.0 12.0 0.00 0.00 0.00 88 1009.3
20260510075618 37 316 4.0 12.0 0.00 0.00 0.00 88 1008.7
20260510075118 37 314 5.0 12.0 0.00 0.00 0.00 87 1008.7
20260510074102 37 308 5.0 13.0 0.00 0.00 0.00 87 1008.7
20260510073602 37 306 5.0 13.0 0.00 0.00 0.00 86 1008.6
20260510073101 37 309 6.0 13.0 0.00 0.00 0.00 86 1008.5
20260510072045 38 315 6.0 14.0 0.00 0.00 0.00 85 1008.2
20260510071545 38 312 5.0 14.0 0.00 0.00 0.00 85 1008.2
20260510070531 38 331 8.0 15.0 0.00 0.00 0.00 84 1008.0
20260510070030 38 330 6.0 14.0 0.00 0.00 0.00 84 1007.9
20260510065530 38 332 8.0 14.0 0.00 0.00 0.00 84 1007.8
20260510065030 38 331 6.0 13.0 0.00 0.00 0.00 83 1007.7
20260510064015 38 329 8.0 15.0 0.00 0.00 0.00 83 1007.5
20260510062959 38 333 6.0 13.0 0.00 0.00 0.00 83 1007.6
20260510062459 38 320 6.0 13.0 0.00 0.00 0.00 83 1007.9
20260510061958 38 320 6.0 15.0 0.00 0.00 0.00 83 1007.8
20260510061457 39 324 8.0 15.0 0.00 0.00 0.00 82 1007.8
20260510060957 39 317 9.0 14.0 0.00 0.00 0.00 82 1007.6
20260510060457 39 329 6.0 15.0 0.00 0.00 0.00 82 1007.5
20260510055956 39 324 9.0 15.0 0.00 0.00 0.00 81 1007.5
20260510055456 39 327 7.0 13.0 0.00 0.00 0.00 81 1007.6
20260510054956 39 323 7.0 16.0 0.00 0.00 0.00 81 1007.3
20260510054455 39 318 8.0 16.0 0.00 0.00 0.00 80 1007.4
20260510053954 39 319 8.0 16.0 0.00 0.00 0.00 80 1007.5
20260510053454 39 314 10.0 16.0 0.00 0.00 0.00 80 1007.4
20260510052954 39 321 8.0 20.0 0.00 0.00 0.00 79 1007.2
20260510052454 39 326 12.0 20.0 0.00 0.00 0.00 79 1006.7
20260510051954 39 325 8.0 15.0 0.00 0.00 0.00 79 1006.5
20260510051454 40 313 8.0 15.0 0.00 0.00 0.00 78 1007.0
20260510050438 40 325 9.0 22.0 0.00 0.00 0.00 78 1006.2
20260510045938 40 319 10.0 22.0 0.00 0.00 0.00 78 1006.0
20260510044406 40 315 10.0 21.0 0.00 0.00 0.00 78 1005.6
20260510043906 40 320 11.0 21.0 0.00 0.00 0.00 78 1005.8
20260510043405 40 324 8.0 19.0 0.00 0.00 0.00 78 1005.4
20260510042904 40 322 10.0 19.0 0.00 0.00 0.00 78 1005.8
20260510042404 40 320 9.0 20.0 0.00 0.00 0.00 79 1005.8
20260510041904 40 318 9.0 20.0 0.00 0.00 0.00 80 1005.6
20260510041403 40 312 8.0 17.0 0.00 0.00 0.00 81 1005.6
20260510040904 40 313 10.0 20.0 0.00 0.00 0.00 81 1005.6
20260510034816 40 312 9.0 17.0 0.00 0.00 0.07 81 1005.2
20260510034315 40 322 9.0 17.0 0.00 0.00 0.07 82 1005.4
20260510033815 40 314 9.0 22.0 0.00 0.00 0.07 83 1005.3
20260510033315 40 328 8.0 22.0 0.00 0.00 0.07 82 1005.3
20260510032814 40 320 7.0 20.0 0.00 0.00 0.07 82 1005.1
20260510032314 40 319 8.0 17.0 0.00 0.00 0.07 82 1005.1
20260510030228 40 315 12.0 19.0 0.00 0.00 0.07 81 1004.6
20260510025728 40 310 10.0 17.0 0.00 0.00 0.07 82 1004.4
20260510025228 40 317 7.0 13.0 0.00 0.00 0.07 82 1004.5
20260510024727 40 320 7.0 22.0 0.00 0.00 0.07 82 1004.4
20260510024226 41 306 8.0 22.0 0.00 0.00 0.07 81 1004.5
20260510023726 41 310 9.0 21.0 0.00 0.00 0.07 80 1004.4
20260510023226 41 317 9.0 21.0 0.00 0.00 0.07 80 1004.2
20260510022726 41 312 9.0 17.0 0.00 0.00 0.07 80 1004.2
20260510022226 41 317 8.0 19.0 0.00 0.00 0.07 79 1004.7
20260510021726 41 322 7.0 19.0 0.00 0.00 0.07 80 1003.2
20260510021225 42 323 10.0 17.0 0.00 0.00 0.07 80 1004.0
20260510020725 42 318 9.0 20.0 0.00 0.00 0.07 79 1003.4
20260510020225 42 318 9.0 20.0 0.00 0.00 0.07 80 1003.5
20260510014652 42 319 8.0 15.0 0.00 0.00 0.07 79 1003.4
20260510014152 42 323 6.0 16.0 0.00 0.00 0.07 78 1002.5
20260510013135 43 321 7.0 16.0 0.00 0.00 0.07 78 1003.1
20260510012634 43 320 9.0 16.0 0.00 0.00 0.07 78 1003.2
20260510010548 43 330 8.0 21.0 0.00 0.00 0.07 75 1002.5
20260510010047 43 320 9.0 21.0 0.00 0.00 0.07 74 1002.3
20260510005546 43 332 7.0 20.0 0.00 0.00 0.07 74 1002.3
20260510004530 44 331 9.0 21.0 0.00 0.00 0.07 72 1001.9
20260510004029 44 325 11.0 20.0 0.00 0.00 0.07 70 1001.9
20260510003528 45 336 12.0 20.0 0.00 0.00 0.07 68 1001.8
20260510002512 46 334 11.0 21.0 0.00 0.00 0.07 63 1000.3
20260510002012 46 319 12.0 21.0 0.00 0.00 0.07 61 1000.2
20260510001512 46 322 11.0 22.0 0.00 0.00 0.07 61 1000.1
20260510000456 47 328 9.0 21.0 0.00 0.00 0.07 62 1000.0
20260509235441 47 328 11.0 23.0 0.00 0.00 0.07 63 999.7
20260509234940 47 331 9.0 23.0 0.00 0.00 0.07 64 999.3
20260509234438 47 328 12.0 23.0 0.00 0.00 0.07 65 999.5
20260509233938 47 327 10.0 22.0 0.00 0.00 0.07 65 999.1
20260509232922 49 321 11.0 25.0 0.00 0.00 0.07 66 998.8
20260509231905 49 324 11.0 26.0 0.00 0.00 0.07 66 998.7
20260509230850 49 334 11.0 22.0 0.00 0.00 0.07 68 997.1
20260509230350 49 322 12.0 22.0 0.00 0.00 0.07 66 997.6
20260509225850 50 331 14.0 22.0 0.00 0.00 0.07 67 997.6
20260509225350 49 329 9.0 19.0 0.00 0.00 0.07 69 997.7
20260509224850 48 328 10.0 22.0 0.00 0.00 0.07 71 997.3
20260509224350 48 335 10.0 24.0 0.00 0.00 0.07 72 997.6
20260509223849 49 335 11.0 24.0 0.00 0.00 0.07 72 997.2
20260509222317 48 335 8.0 20.0 0.00 0.00 0.07 74 996.9
20260509221817 48 338 11.0 25.0 0.00 0.00 0.07 73 996.9
20260509221316 48 331 11.0 25.0 0.00 0.00 0.07 73 995.9
20260509220815 49 339 13.0 20.0 0.00 0.00 0.07 71 996.3
20260509220314 49 333 15.0 21.0 0.00 0.00 0.07 72 995.6
20260509215814 49 335 11.0 22.0 0.00 0.00 0.07 72 996.2
20260509215313 49 330 12.0 24.0 0.00 0.00 0.07 72 996.2
20260509214813 49 328 12.0 24.0 0.00 0.00 0.07 73 995.8
20260509214313 49 339 14.0 21.0 0.00 0.00 0.07 73 995.9
20260509213813 49 332 11.0 21.0 0.00 0.00 0.07 74 995.8
20260509213312 50 329 10.0 22.0 0.00 0.00 0.07 73 995.2
20260509212811 50 328 11.0 22.0 0.00 0.00 0.07 73 995.5
20260509211755 51 315 10.0 21.0 0.00 0.00 0.07 71 994.6
20260509211255 52 306 9.0 17.0 0.00 0.00 0.07 70 994.7
20260509210238 53 315 9.0 17.0 0.00 0.00 0.07 72 994.3
20260509205738 52 319 9.0 14.0 0.00 0.00 0.07 75 994.6
20260509205237 50 324 5.0 14.0 0.00 0.00 0.07 80 994.4
20260509204736 48 295 4.0 12.0 0.00 0.00 0.07 80 994.3
20260509204236 47 312 5.0 12.0 0.00 0.00 0.07 80 994.1
20260509203736 46 300 5.0 14.0 0.00 0.00 0.07 82 994.0
20260509203236 46 286 4.0 14.0 0.00 0.00 0.07 83 994.0
20260509202735 46 292 6.0 12.0 0.00 0.00 0.07 83 994.1
20260509202235 47 275 6.0 12.0 0.00 0.00 0.07 84 994.1
20260509201735 47 256 4.0 11.0 0.00 0.00 0.07 85 993.9
20260509201235 48 228 3.0 11.0 0.00 0.00 0.07 84 993.2
20260509200218 49 246 2.0 11.0 0.00 0.00 0.07 83 993.1
20260509195201 51 237 4.0 11.0 0.00 0.00 0.07 79 993.1
20260509194700 52 260 4.0 11.0 0.00 0.00 0.07 81 993.4
20260509194200 50 265 1.0 11.0 0.00 0.00 0.07 87 993.2
20260509193659 48 228 2.0 11.0 0.00 0.00 0.07 85 992.9
20260509193159 49 254 3.0 11.0 0.00 0.00 0.07 83 993.4
20260509192658 52 231 3.0 11.0 0.00 0.00 0.07 81 992.9
20260509192158 50 248 2.0 11.0 0.00 0.00 0.07 85 992.9
20260509191658 48 249 2.0 11.0 0.00 0.00 0.07 88 993.0
20260509191158 46 233 3.0 11.0 0.00 0.00 0.07 90 992.9
20260509190657 46 241 4.0 14.0 0.00 0.00 0.07 91 993.5
20260509190157 46 240 3.0 14.0 0.00 0.00 0.07 90 993.3
20260509185657 47 252 4.0 12.0 0.00 0.00 0.07 89 993.3
20260509185156 47 266 3.0 16.0 0.00 0.00 0.07 89 993.2
20260509184656 47 259 5.0 19.0 0.00 0.00 0.07 89 993.5
20260509184155 47 239 5.0 19.0 0.00 0.00 0.07 89 993.5
20260509183655 48 228 5.0 20.0 0.00 0.00 0.07 88 993.1
20260509183155 49 219 8.0 24.0 0.00 0.00 0.07 87 993.2
20260509182654 50 212 9.0 24.0 0.00 0.00 0.07 87 993.2
20260509182153 50 204 10.0 22.0 0.00 0.00 0.07 86 993.0
20260509181653 50 205 9.0 25.0 0.00 0.00 0.07 87 993.1
20260509181152 50 201 13.0 25.0 0.00 0.00 0.07 86 993.4
20260509180651 50 206 12.0 22.0 0.00 0.00 0.07 86 993.4
20260509180151 50 198 12.0 21.0 0.00 0.00 0.07 85 993.3
20260509175651 50 200 10.0 28.0 0.00 0.00 0.07 84 993.3
20260509175150 51 197 15.0 28.0 0.00 0.00 0.07 83 993.6
20260509174649 50 196 12.0 22.0 0.00 0.00 0.07 85 993.3
20260509174149 48 194 9.0 19.0 0.00 0.00 0.07 86 993.6
20260509173649 49 183 8.0 23.0 0.00 0.00 0.07 84 993.5
20260509173148 49 178 13.0 23.0 0.00 0.00 0.07 84 993.6
20260509172132 50 180 11.0 23.0 0.00 0.00 0.07 84 993.6
20260509171632 50 178 10.0 19.0 0.00 0.00 0.07 84 993.4
20260509170615 51 175 8.0 20.0 0.00 0.00 0.07 83 993.7
20260509170114 51 177 11.0 16.0 0.00 0.00 0.07 82 993.7
20260509165613 51 172 9.0 16.0 0.00 0.00 0.07 82 993.7
20260509165113 51 169 9.0 19.0 0.00 0.00 0.07 82 993.7
20260509164613 51 173 10.0 20.0 0.00 0.00 0.07 82 993.5
20260509164113 51 171 9.0 20.0 0.00 0.00 0.07 84 993.6
20260509163612 50 164 9.0 17.0 0.00 0.00 0.07 85 993.2
20260509163112 50 168 10.0 17.0 0.00 0.00 0.07 87 993.9
20260509162612 49 161 10.0 20.0 0.00 0.00 0.07 88 993.7
20260509162112 49 161 9.0 20.0 0.00 0.00 0.07 88 993.8
20260509161611 49 160 8.0 17.0 0.00 0.00 0.07 88 993.8
20260509161111 49 158 11.0 17.0 0.00 0.00 0.07 87 994.4
20260509160610 49 157 10.0 21.0 0.00 0.00 0.07 86 994.6
20260509160110 49 158 12.0 21.0 0.01 0.00 0.07 86 995.2
20260509155610 49 166 13.0 21.0 0.03 0.00 0.07 86 995.0
20260509155110 49 166 12.0 21.0 0.03 0.00 0.07 86 994.9